COSMOS 249 DEB, 14430

Orbit data source: Space-Track

COSMOS 249 DEB, 14430 is space debris in LEO originally from a launch on Sun, 20 Oct 1968 UTC launched from the Tyuratam Missile And Space Complex (TTMTR). Debris objects in space refer to the collection of defunct objects orbiting the Earth. Examples of debris include non-operational satellites, rocket bodies, and fragments generated from explosions, collisions, or faulty payload assembly.

Loading next visibility...
Identifier
14430, 1968-091CV
Orbit
LEO
Country
Flag of CISCIS
Related business
Manufacturer
Unknown
Mission
Spacecraft
Bus & Motor
Unknown
Mass
Unknown
Launch date (UTC)
1968-10-20 (58 years ago)
Launch vehicle
Unknown
Launch site
Tyuratam Missile And Space Complex (TTMTR)
Object type
Payload
Rocket body
Debris
Shape & HBR
Unknown shape, 1.1 m
Radar Cross Section
Small (<0.1 m²)

Expand to show TLE details & history
Last TLE update: 21 hours ago

TLE from 21 hours ago
0 COSMOS 249 DEB
1 14430U 68091CV  26125.15447598  .00001231  00000-0  14816-2 0  9994
2 14430  62.2433  17.2704 0665308 165.5592 350.4932 13.01849214 95289
Epoch: 2026-05-05T03:42Z
TLE epoch observation values (Epoch: 2026-05-05T03:42:26.724Z)
Latitude
22.27823°
Longitude
-93.757°
Altitude
756.441 km
Speed
7.719 km/s
True Right ascension
12h 19m 33s
True Declination
22° 09' 28"
Sunlit
Object was in full shadow at epoch
Visualization orbit readout
Latitude
Unknown
Longitude
Unknown
Altitude
Unknown
Speed
Unknown
Apparent Right ascension
Unknown
Apparent Declination
Unknown
Sunlit
N/A
Visualization observer readout
Local Sidereal Time
08:10:32
Azimuth
Unknown
Elevation
Unknown
Doppler factor
Unknown
Orbital elements
Apogee altitude
1,761.605 km
Perigee altitude
746.082 km
Semi-major axis
7,631.981 km
Eccentricity
0.06653
Inclination
62.2433°
RAAN
17.2704°
Arg. of periapsis
165.5592°
True anomaly
349.12208°
Mean anomaly
350.4932°
Eccentric anomaly
349.81944°
Mean motion
3.25527 °/min
Orbital period
110.59 mins
BSTAR
0.0014816
Loading maneuver chart data...
Computing Atmospheric mass density...

Documentation

Showing up to 5 results
|